Home > Weather > Xiamen > Past weeks

Flag for China Weather for the Past 2 Weeks in Xiamen, Fujian, China

Now
77 °F

Passing clouds.


Feels Like: 78 °F
Forecast: 72 / 82 °F
Wind: 8 mph from East

Location: Xiamen Airport

Current Time: May 4, 2016 at 6:46:28 PM

Latest Report: May 4, 2016 at 6:00 PM


Visibility: N/A

Pressure: 29.86 "Hg

Humidity: 89%

Dew Point: 73 °F

Location of XiamenLocation

Historic Weather in Xiamen — Graph

°F

Xiamen Temperature Yesterday

Maximum temperature yesterday: 88 °F (at 11:00 AM)
Minimum temperature yesterday: 73 °F (at 12:00 AM)
Average temperature yesterday: 80 °F

High & Low Weather Summary for the Past Weeks

 TemperatureHumidityPressure
High88 °F (Apr 21, 1:00 PM)100% (Apr 21, 8:00 PM)30.12 "Hg (Apr 21, 8:00 PM)
Low61 °F (Apr 30, 3:00 PM)45% (Apr 29, 12:00 PM)29.68 "Hg (Apr 27, 3:00 PM)
Average73 °F87%29.88 "Hg
* Reported Apr 19 5:00 PM — May 4 5:00 PM, Xiamen, Weather by CustomWeather, © 2016

Note: Actual official high and low records may vary slightly from our data, if they occured in-between our weather recording intervals... More about our weather records

Advertising

Xiamen Weather History for the Previous 24 Hours

Scroll right to see more
 ConditionsComfort  
Time TempWeatherWind HumidityBarometerVisibility
5:00 PM
Wed, May 4
79 °FPassing clouds.6 mph84%29.83 "HgN/A
4:00 PM81 °FPassing clouds.6 mph74%29.83 "HgN/A
3:00 PM84 °FPassing clouds.6 mph66%29.86 "HgN/A
2:00 PM82 °FPassing clouds.8 mph74%29.89 "HgN/A
1:00 PM84 °FPassing clouds.8 mph70%29.89 "HgN/A
12:00 PM82 °FClear.8 mph70%29.92 "Hg5 mi
11:00 AM81 °FPassing clouds.6 mph79%29.95 "Hg4 mi
10:00 AM81 °FFog.8 mph79%29.95 "Hg3 mi
9:00 AM77 °FFog.6 mph89%29.95 "Hg2 mi
8:00 AM77 °FFog.6 mph89%29.92 "Hg2 mi
7:00 AM73 °FFog.8 mph94%29.92 "Hg2 mi
6:00 AM73 °FFog.1 mph100%29.89 "Hg2 mi
5:00 AM73 °FClear.1 mph94%29.89 "Hg4 mi
4:00 AM73 °FFog.3 mph94%29.86 "Hg3 mi
3:00 AM73 °FFog.1 mph94%29.86 "Hg3 mi
2:00 AM75 °FFog.1 mph94%29.86 "Hg3 mi
1:00 AM75 °FFog.1 mph94%29.89 "Hg3 mi
12:00 AM75 °FFog.1 mph94%29.89 "Hg3 mi
11:00 PM
Tue, May 3
75 °FFog.3 mph94%29.89 "Hg3 mi
10:00 PM75 °FClear.3 mph94%29.89 "Hg4 mi
9:00 PM79 °FClear.1 mph74%29.86 "Hg10 mi
8:00 PM82 °FClear.1 mph66%29.86 "Hg10 mi
7:00 PM84 °FPassing clouds.6 mph58%29.83 "HgN/A
6:00 PM84 °FPassing clouds.8 mph55%29.83 "HgN/A
Weather by CustomWeather, © 2016

See weather overviewHow to use our weather pages